TimeEDT,TemperatureF,Dew PointF,Humidity,Sea Level PressureIn,VisibilityMPH,Wind Direction,Wind SpeedMPH,Gust SpeedMPH,PrecipitationIn,Events,Conditions,WindDirDegrees,DateUTC
12:54 AM,72.0,64.0,76,29.85,10.0,Calm,Calm,-,N/A,,Partly Cloudy,0,2013-06-12 04:54:00
1:54 AM,70.0,64.0,81,29.86,10.0,Calm,Calm,-,0.00,,Partly Cloudy,0,2013-06-12 05:54:00
2:54 AM,69.1,64.0,84,29.86,10.0,Calm,Calm,-,N/A,,Clear,0,2013-06-12 06:54:00
3:54 AM,69.1,64.9,87,29.88,10.0,SW,3.5,-,N/A,,Scattered Clouds,230,2013-06-12 07:54:00
4:54 AM,70.0,64.9,84,29.88,10.0,Calm,Calm,-,N/A,,Clear,0,2013-06-12 08:54:00
5:54 AM,69.1,64.9,87,29.86,10.0,Calm,Calm,-,N/A,,Clear,0,2013-06-12 09:54:00
6:54 AM,64.9,63.0,93,29.88,5.0,North,3.5,-,N/A,,Clear,350,2013-06-12 10:54:00
7:54 AM,71.1,66.0,84,29.89,7.0,Calm,Calm,-,N/A,,Clear,0,2013-06-12 11:54:00
8:54 AM,73.0,66.0,79,29.91,8.0,WSW,3.5,-,N/A,,Clear,250,2013-06-12 12:54:00
9:54 AM,73.0,66.9,81,29.87,8.0,South,9.2,-,N/A,,Scattered Clouds,190,2013-06-12 13:54:00
10:54 AM,77.0,66.9,71,29.88,10.0,SW,6.9,-,N/A,,Clear,220,2013-06-12 14:54:00
11:54 AM,80.1,68.0,67,29.84,10.0,SSW,12.7,-,N/A,,Clear,200,2013-06-12 15:54:00
12:54 PM,79.0,68.0,69,29.81,10.0,SSE,8.1,-,N/A,,Clear,160,2013-06-12 16:54:00
1:54 PM,81.0,70.0,69,29.76,10.0,SSE,11.5,19.6,N/A,,Clear,160,2013-06-12 17:54:00
2:54 PM,81.0,72.0,74,29.77,10.0,SE,8.1,-,N/A,,Mostly Cloudy,140,2013-06-12 18:54:00
3:54 PM,84.0,72.0,67,29.80,10.0,SSW,3.5,-,N/A,,Scattered Clouds,210,2013-06-12 19:54:00
4:54 PM,84.9,72.0,65,29.77,10.0,Calm,Calm,-,N/A,,Scattered Clouds,0,2013-06-12 20:54:00
5:54 PM,88.0,70.0,55,29.73,10.0,Calm,Calm,-,N/A,,Partly Cloudy,0,2013-06-12 21:54:00
6:54 PM,86.0,69.1,57,29.71,10.0,Calm,Calm,-,N/A,,Mostly Cloudy,0,2013-06-12 22:54:00
7:26 PM,84.2,71.6,66,29.71,10.0,SSE,3.5,-,N/A,Thunderstorm,Thunderstorm,160,2013-06-12 23:26:00
7:41 PM,84.2,71.6,66,29.69,10.0,SE,6.9,-,N/A,,Clear,140,2013-06-12 23:41:00
7:54 PM,82.9,72.0,69,29.68,10.0,South,3.5,-,N/A,,Clear,180,2013-06-12 23:54:00
8:54 PM,82.0,73.0,74,29.65,10.0,South,13.8,18.4,0.00,Rain-Thunderstorm,Light Rain,170,2013-06-13 00:54:00
9:35 PM,73.4,69.8,88,29.64,6.0,SSE,19.6,25.3,0.00,Rain-Thunderstorm,Light Thunderstorms and Rain,160,2013-06-13 01:35:00
9:52 PM,71.6,68.0,88,29.65,10.0,South,13.8,26.5,0.01,Rain,Light Rain,180,2013-06-13 01:52:00
9:54 PM,72.0,68.0,87,29.64,10.0,South,15.0,-,0.01,Rain-Thunderstorm,Light Thunderstorms and Rain,170,2013-06-13 01:54:00
10:20 PM,69.8,68.0,94,29.67,7.0,South,17.3,-,0.04,Rain-Thunderstorm,Thunderstorms and Rain,180,2013-06-13 02:20:00
10:54 PM,71.1,66.9,87,29.64,5.0,Calm,Calm,-,0.13,Rain,Rain,0,2013-06-13 02:54:00
11:03 PM,71.6,66.2,83,29.63,9.0,Variable,5.8,-,0.02,Rain-Thunderstorm,Light Rain,0,2013-06-13 03:03:00
11:14 PM,69.8,66.2,88,29.68,8.0,NNW,9.2,-,0.03,Rain-Thunderstorm,Thunderstorms and Rain,340,2013-06-13 03:14:00
11:36 PM,68.0,64.4,88,29.69,7.0,North,15.0,26.5,0.07,Rain-Thunderstorm,Thunderstorms and Rain,360,2013-06-13 03:36:00
11:50 PM,66.2,62.6,88,29.73,10.0,North,13.8,29.9,0.07,Rain-Thunderstorm,Light Rain,350,2013-06-13 03:50:00
11:54 PM,66.0,63.0,90,29.71,10.0,North,12.7,-,0.07,Rain-Thunderstorm,Light Rain,350,2013-06-13 03:54:00